LU5DTF-1 Weather Reports


time (UTC)temp
F
wind
direction
speed
knots
gust
knots
rain 1hr
in
rain 24hr
in
rain mn
in
humidity
%
barometer
mb
20260505125003 62 36 0.9 3.5 0.00 0.00 0.00 72 1013.1
20260505124503 63 317 0.0 1.7 0.00 0.00 0.00 65 1013.0
20260505124003 63 299 0.0 1.7 0.00 0.00 0.00 66 1013.0
20260505123503 62 284 0.9 3.5 0.00 0.00 0.00 66 1013.0
20260505123003 62 276 1.7 5.2 0.00 0.00 0.00 66 1013.0
20260505122503 62 276 1.7 5.2 0.00 0.00 0.00 66 1013.1
20260505122003 62 286 0.9 3.5 0.00 0.00 0.00 68 1013.1
20260505121503 61 319 0.0 1.7 0.00 0.00 0.00 70 1013.1
20260505121003 61 25 0.0 0.9 0.00 0.00 0.00 70 1013.0
20260505120503 60 55 0.9 2.6 0.00 0.00 0.00 71 1012.9
20260505120003 60 62 1.7 3.5 0.00 0.00 0.00 73 1012.8
20260505115503 60 62 2.6 3.5 0.00 0.00 0.00 74 1012.7
20260505115003 60 58 1.7 3.5 0.00 0.00 0.00 75 1012.8
20260505114503 60 48 0.9 3.5 0.00 0.00 0.00 76 1012.8
20260505114003 60 38 0.0 1.7 0.00 0.00 0.00 75 1012.8
20260505113503 59 42 0.0 1.7 0.00 0.00 0.00 73 1012.8
20260505113003 59 349 0.0 0.9 0.00 0.00 0.00 73 1012.8
20260505112503 59 270 0.0 1.7 0.00 0.00 0.00 72 1012.6
20260505112003 59 271 0.0 1.7 0.00 0.00 0.00 72 1012.5
20260505111503 59 289 0.0 0.9 0.00 0.00 0.00 72 1012.4
20260505111003 58 264 0.0 0.9 0.00 0.00 0.00 72 1012.6
20260505110503 58 280 0.0 0.9 0.00 0.00 0.00 72 1012.5
20260505102003 58 267 0.9 2.6 0.00 0.00 0.00 72 1012.3
20260505101503 58 266 0.0 1.7 0.00 0.00 0.00 72 1012.2
20260505101003 58 0 0.0 0.0 0.00 0.00 0.00 72 1012.2
20260505100502 58 0 0.0 0.0 0.00 0.00 0.00 72 1012.2
20260505100003 57 0 0.0 0.0 0.00 0.00 0.00 73 1012.3
20260505095505 58 314 0.0 0.9 0.00 0.00 0.00 73 1012.4
20260505095002 58 307 0.0 0.9 0.00 0.00 0.00 73 1012.2
20260505094503 58 292 0.0 0.9 0.00 0.00 0.00 71 1012.3
20260505094002 58 229 0.0 0.9 0.00 0.00 0.00 72 1012.1
20260505093503 58 259 0.9 2.6 0.00 0.00 0.00 72 1012.0
20260505093003 58 270 1.7 3.5 0.00 0.00 0.00 70 1011.8
20260505092503 58 274 3.5 5.2 0.00 0.00 0.00 71 1011.6
20260505092002 58 276 3.5 5.2 0.00 0.00 0.00 70 1011.5
20260505091503 58 275 3.5 5.2 0.00 0.00 0.00 71 1011.5
20260505091003 58 274 3.5 5.2 0.00 0.00 0.00 72 1011.5
20260505090502 58 272 3.5 5.2 0.00 0.00 0.00 72 1011.4
20260505090003 58 273 3.5 5.2 0.00 0.00 0.00 73 1011.5
20260505085503 57 276 4.3 6.1 0.00 0.00 0.00 74 1011.6
20260505085002 57 275 4.3 6.1 0.00 0.00 0.00 76 1011.5
20260505084502 57 274 4.3 5.2 0.00 0.00 0.00 76 1011.4
20260505084002 57 274 4.3 6.1 0.00 0.00 0.00 76 1011.1
20260505083502 57 274 5.2 7.0 0.00 0.00 0.00 76 1010.9
20260505083002 57 276 5.2 7.0 0.00 0.00 0.00 76 1010.9
20260505082502 57 274 4.3 7.0 0.00 0.00 0.00 76 1010.9
20260505082002 57 272 4.3 7.0 0.00 0.00 0.00 75 1010.7
20260505081502 57 272 4.3 6.1 0.00 0.00 0.00 74 1010.7
20260505081002 58 275 3.5 6.1 0.00 0.00 0.00 74 1010.5
20260505080503 58 274 3.5 6.1 0.00 0.00 0.00 73 1010.5
20260505080003 58 273 4.3 7.0 0.00 0.00 0.00 72 1010.4
20260505075503 59 276 3.5 7.0 0.00 0.00 0.00 71 1010.5
20260505075002 59 282 2.6 5.2 0.00 0.00 0.00 71 1010.5
20260505074503 59 296 1.7 3.5 0.00 0.00 0.00 71 1010.1
20260505074002 59 303 1.7 4.3 0.00 0.00 0.00 71 1010.1
20260505073503 59 305 2.6 6.1 0.00 0.00 0.00 71 1010.0
20260505073002 59 302 3.5 6.1 0.00 0.00 0.00 71 1009.9
20260505072503 59 290 2.6 5.2 0.00 0.00 0.00 71 1010.2
20260505072003 59 278 3.5 5.2 0.00 0.00 0.00 71 1010.3
20260505071503 59 278 2.6 5.2 0.00 0.00 0.00 71 1010.3
20260505071003 59 279 2.6 5.2 0.00 0.00 0.00 71 1010.3
20260505070503 59 275 3.5 6.1 0.00 0.00 0.00 72 1010.1
20260505070003 59 274 4.3 6.1 0.00 0.00 0.00 71 1010.1
20260505065502 59 284 3.5 7.0 0.00 0.00 0.00 71 1010.3
20260505065002 59 291 3.5 7.0 0.00 0.00 0.00 71 1010.2
20260505064502 59 286 4.3 7.0 0.00 0.00 0.00 72 1010.2
20260505064002 59 284 4.3 7.8 0.00 0.00 0.00 72 1010.3
20260505063503 59 282 5.2 7.8 0.00 0.00 0.00 72 1010.3
20260505063003 58 279 5.2 7.8 0.00 0.00 0.00 73 1010.4
20260505062502 58 277 5.2 7.8 0.00 0.00 0.00 72 1010.3
20260505062002 58 280 5.2 7.8 0.00 0.00 0.00 72 1010.4
20260505061502 59 279 5.2 7.0 0.00 0.00 0.00 72 1010.3
20260505061003 59 273 3.5 6.1 0.00 0.00 0.00 71 1010.2
20260505060502 59 275 2.6 6.1 0.00 0.00 0.00 71 1010.2
20260505060003 60 295 1.7 3.5 0.00 0.00 0.00 70 1010.2
20260505055503 60 300 2.6 4.3 0.00 0.00 0.00 70 1010.2
20260505055002 60 295 3.5 5.2 0.00 0.00 0.00 70 1010.2
20260505054502 60 291 4.3 7.0 0.00 0.00 0.00 70 1010.3
20260505054002 60 290 4.3 7.8 0.00 0.00 0.00 70 1010.2
20260505053502 60 287 5.2 7.8 0.00 0.00 0.00 69 1010.4
20260505053002 60 287 3.5 7.8 0.00 0.00 0.00 69 1010.2
20260505052502 60 292 2.6 5.2 0.00 0.00 0.00 69 1010.2
20260505052003 60 304 3.5 6.1 0.00 0.00 0.00 68 1010.1
20260505051503 60 309 4.3 7.0 0.00 0.00 0.00 68 1010.1
20260505051003 60 310 5.2 7.8 0.00 0.00 0.00 68 1010.1
20260505050502 60 308 6.1 9.6 0.00 0.00 0.00 68 1009.9
20260505041502 59 343 1.7 4.3 0.00 0.00 0.00 65 1010.2
20260505041002 59 325 0.9 2.6 0.00 0.00 0.00 66 1010.5
20260505040502 59 330 1.7 3.5 0.00 0.00 0.00 66 1010.5
20260505040003 59 331 1.7 3.5 0.00 0.00 0.00 66 1010.4
20260505035503 59 323 0.9 2.6 0.00 0.00 0.00 66 1010.4
20260505035002 59 324 0.9 2.6 0.00 0.00 0.00 66 1010.4
20260505034502 59 325 0.0 1.7 0.00 0.00 0.00 66 1010.4
20260505034002 59 294 0.0 0.9 0.00 0.00 0.00 67 1010.3
20260505033502 59 298 0.0 2.6 0.00 0.00 0.00 67 1010.3
20260505033002 59 302 0.9 2.6 0.00 0.00 0.00 67 1010.3
20260505032502 59 302 0.9 3.5 0.00 0.00 0.00 68 1010.3
20260505032002 59 287 1.7 6.1 0.00 0.00 0.00 70 1010.3
20260505031502 59 284 1.7 6.1 0.00 0.00 0.00 69 1010.3
20260505031003 59 293 2.6 3.5 0.00 0.00 0.00 69 1010.3
20260505025502 60 275 1.7 4.3 0.00 0.00 0.00 71 1010.3
20260505025002 60 286 0.0 2.6 0.00 0.00 0.00 71 1010.1
20260505024502 60 308 0.0 0.9 0.00 0.00 0.00 71 1010.0
20260505024002 60 304 0.0 0.9 0.00 0.00 0.00 70 1009.9
20260505023503 60 307 0.0 1.7 0.00 0.00 0.00 71 1010.1
20260505023003 60 312 0.0 1.7 0.00 0.00 0.00 71 1010.0
20260505022503 60 303 1.7 4.3 0.00 0.00 0.00 72 1010.0
20260505022002 60 302 2.6 4.3 0.00 0.00 0.00 72 1010.1
20260505021502 60 297 1.7 3.5 0.00 0.00 0.00 72 1010.2
20260505021002 60 283 1.7 3.5 0.00 0.00 0.00 72 1010.1
20260505020503 60 270 1.7 3.5 0.00 0.00 0.00 73 1010.1
20260505020002 60 257 0.9 1.7 0.00 0.00 0.00 73 1010.0
20260505015502 60 262 0.9 1.7 0.00 0.00 0.00 73 1010.1
20260505015002 60 273 0.9 1.7 0.00 0.00 0.00 72 1009.9
20260505014502 60 276 0.9 1.7 0.00 0.00 0.00 72 1010.0
20260505014002 60 281 0.0 0.9 0.00 0.00 0.00 72 1009.9
20260505013502 60 0 0.0 0.0 0.00 0.00 0.00 72 1009.7
20260505013003 60 0 0.0 0.0 0.00 0.00 0.00 72 1009.7
20260505012503 60 0 0.0 0.0 0.00 0.00 0.00 72 1009.8
20260505012002 60 288 0.0 0.9 0.00 0.00 0.00 73 1009.8
20260505011502 60 288 0.0 0.9 0.00 0.00 0.00 73 1009.7
20260505011003 60 288 0.0 0.9 0.00 0.00 0.00 72 1009.7
20260505010502 60 293 0.0 0.9 0.00 0.00 0.00 72 1009.7
20260505010002 60 310 0.0 0.9 0.00 0.00 0.00 72 1009.8
20260505005505 60 295 0.0 0.9 0.00 0.00 0.00 72 1009.7
20260505005002 60 294 0.0 0.9 0.00 0.00 0.00 71 1009.7
20260505004502 61 280 0.0 0.9 0.00 0.00 0.00 71 1009.8
20260505004002 61 269 0.0 0.9 0.00 0.00 0.00 71 1009.8
20260505003502 61 248 0.0 0.9 0.00 0.00 0.00 71 1009.9
20260505003002 61 0 0.0 0.0 0.00 0.00 0.00 71 1009.8
20260505002502 60 0 0.0 0.0 0.00 0.00 0.00 71 1009.7
20260505002002 60 0 0.0 0.0 0.00 0.00 0.00 72 1009.7
20260505001502 61 0 0.0 0.0 0.00 0.00 0.00 71 1009.8
20260505001002 61 208 0.0 0.9 0.00 0.00 0.00 71 1009.7
20260505000503 61 204 0.9 0.9 0.00 0.00 0.00 71 1009.5
20260505000002 61 199 0.9 1.7 0.00 0.00 0.00 71 1009.5
20260504235502 61 198 0.9 1.7 0.00 0.00 0.00 71 1009.6
20260504235003 61 198 0.9 1.7 0.00 0.00 0.00 71 1009.6
20260504234502 61 310 0.0 0.9 0.00 0.00 0.00 70 1009.4
20260504234002 61 321 0.0 0.9 0.00 0.00 0.00 71 1009.3
20260504233502 61 330 0.0 0.9 0.00 0.00 0.00 71 1009.3
20260504233002 61 330 0.0 0.9 0.00 0.00 0.00 71 1009.3
20260504232502 61 0 0.0 0.0 0.00 0.00 0.00 71 1009.2
20260504232002 61 0 0.0 0.0 0.00 0.00 0.00 70 1009.3
20260504231502 61 0 0.0 0.0 0.00 0.00 0.00 70 1009.5
20260504231002 61 193 0.0 0.9 0.00 0.00 0.00 70 1009.4
20260504230502 61 191 0.9 2.6 0.00 0.00 0.00 70 1009.4
20260504230002 61 186 0.9 2.6 0.00 0.00 0.00 70 1009.5
20260504225502 62 211 0.9 2.6 0.00 0.00 0.00 69 1009.5
20260504225002 62 217 0.9 3.5 0.00 0.00 0.00 68 1009.4
20260504224502 62 227 1.7 7.8 0.00 0.00 0.00 68 1009.4
20260504224002 62 232 3.5 7.8 0.00 0.00 0.00 67 1009.3
20260504223502 62 231 4.3 7.0 0.00 0.00 0.00 67 1009.3
20260504223002 62 244 3.5 7.0 0.00 0.00 0.00 67 1009.3
20260504222502 63 267 2.6 6.1 0.00 0.00 0.00 66 1009.3
20260504222002 64 285 2.6 6.1 0.00 0.00 0.00 65 1009.0
20260504221502 64 293 2.6 6.1 0.00 0.00 0.00 65 1008.9
20260504221002 64 315 2.6 6.1 0.00 0.00 0.00 65 1008.6
20260504220502 64 325 3.5 6.1 0.00 0.00 0.00 65 1008.5
20260504220002 64 325 2.6 5.2 0.00 0.00 0.00 64 1008.3
20260504215502 65 315 1.7 4.3 0.00 0.00 0.00 63 1008.3
20260504215002 65 308 0.9 2.6 0.00 0.00 0.00 63 1008.3
20260504214502 65 309 0.9 1.7 0.00 0.00 0.00 62 1008.3
20260504214002 66 305 0.9 1.7 0.00 0.00 0.00 62 1008.3
20260504213502 66 318 1.7 5.2 0.00 0.00 0.00 62 1008.2
20260504213002 66 321 2.6 5.2 0.00 0.00 0.00 61 1008.2
20260504212502 66 322 2.6 6.1 0.00 0.00 0.00 61 1008.0
20260504212002 66 326 3.5 6.1 0.00 0.00 0.00 60 1008.0
20260504211502 67 321 3.5 5.2 0.00 0.00 0.00 60 1008.0
20260504211002 67 318 2.6 5.2 0.00 0.00 0.00 59 1008.0
20260504210502 67 324 2.6 5.2 0.00 0.00 0.00 59 1008.0
20260504210003 68 319 2.6 5.2 0.00 0.00 0.00 58 1007.9
20260504205502 68 314 1.7 5.2 0.00 0.00 0.00 57 1008.1
20260504205002 68 317 1.7 4.3 0.00 0.00 0.00 55 1007.8
20260504204502 69 323 1.7 3.5 0.00 0.00 0.00 51 1007.7
20260504204002 69 316 1.7 3.5 0.00 0.00 0.00 49 1007.7
20260504203502 70 293 2.6 5.2 0.00 0.00 0.00 48 1007.6
20260504203002 70 282 2.6 5.2 0.00 0.00 0.00 48 1007.6
20260504202502 70 273 2.6 5.2 0.00 0.00 0.00 48 1007.6
20260504202002 70 268 2.6 5.2 0.00 0.00 0.00 47 1007.4
20260504201502 70 271 2.6 6.1 0.00 0.00 0.00 47 1007.4
20260504201002 70 262 3.5 6.1 0.00 0.00 0.00 48 1007.3
20260504200502 70 253 4.3 7.8 0.00 0.00 0.00 48 1007.4
20260504200002 70 250 4.3 7.8 0.00 0.00 0.00 48 1007.5
20260504195502 70 247 4.3 7.0 0.00 0.00 0.00 48 1007.5
20260504195002 70 247 5.2 10.4 0.00 0.00 0.00 47 1007.5
20260504194502 70 247 5.2 10.4 0.00 0.00 0.00 47 1007.3
20260504194002 70 244 5.2 8.7 0.00 0.00 0.00 47 1007.4
20260504193502 70 242 5.2 8.7 0.00 0.00 0.00 47 1007.3
20260504193002 70 238 5.2 9.6 0.00 0.00 0.00 46 1007.3
20260504192502 70 240 6.1 10.4 0.00 0.00 0.00 46 1007.4
20260504192002 70 243 7.0 11.3 0.00 0.00 0.00 46 1007.4
20260504191502 70 243 7.0 11.3 0.00 0.00 0.00 46 1007.4
20260504191002 70 243 6.1 12.2 0.00 0.00 0.00 45 1007.4
20260504190502 70 242 6.1 12.2 0.00 0.00 0.00 44 1007.4
20260504190002 70 243 7.0 11.3 0.00 0.00 0.00 46 1007.4
20260504185502 70 253 5.2 11.3 0.00 0.00 0.00 46 1007.4
20260504185002 70 286 4.3 8.7 0.00 0.00 0.00 50 1007.3
20260504184502 70 295 5.2 9.6 0.00 0.00 0.00 51 1007.4
20260504184002 70 286 5.2 9.6 0.00 0.00 0.00 51 1007.4
20260504183502 70 278 5.2 8.7 0.00 0.00 0.00 52 1007.5
20260504183002 70 288 5.2 8.7 0.00 0.00 0.00 53 1007.6
20260504182502 69 296 3.5 8.7 0.00 0.00 0.00 52 1007.4
20260504182002 69 310 4.3 10.4 0.00 0.00 0.00 54 1007.4
20260504181502 69 321 6.1 10.4 0.00 0.00 0.00 55 1007.4
20260504181002 68 320 7.0 9.6 0.00 0.00 0.00 56 1007.5
20260504180502 68 310 6.1 10.4 0.00 0.00 0.00 55 1007.4
20260504180002 68 313 5.2 10.4 0.00 0.00 0.00 55 1007.4
20260504175502 68 328 6.1 12.2 0.00 0.00 0.00 57 1007.4
20260504175002 67 321 7.0 13.0 0.00 0.00 0.00 57 1007.3
20260504174502 67 322 7.8 13.0 0.00 0.00 0.00 56 1007.5
20260504174002 67 327 7.8 12.2 0.00 0.00 0.00 58 1007.7
20260504173502 67 323 6.1 12.2 0.00 0.00 0.00 58 1007.7
20260504173002 67 324 6.1 12.2 0.00 0.00 0.00 58 1007.8
20260504172502 66 328 7.0 12.2 0.00 0.00 0.00 58 1007.6
20260504172002 66 333 7.0 12.2 0.00 0.00 0.00 57 1007.6
20260504171502 66 335 7.8 13.9 0.00 0.00 0.00 58 1007.7
20260504171003 66 333 10.4 14.8 0.00 0.00 0.00 58 1007.7
20260504170502 66 330 8.7 14.8 0.00 0.00 0.00 57 1007.6
20260504151002 61 313 7.0 13.0 0.00 0.00 0.00 62 1008.7
20260504141003 58 296 7.0 11.3 0.00 0.00 0.00 63 1008.8
20260504140503 58 296 6.1 11.3 0.00 0.00 0.00 63 1008.7